Dubrovnik, Croatia

5:27 PM CEST on August 21, 2018 (GMT +0200)
Cilipi

Weather History for LDDU - December, 2017

Change the Weather History Date:

Sunday, December 24, 2017

  Actual Average (LYTV) Record (LYTV)
Temperature  
Mean Temperature 50 °F -  
Max Temperature 59 °F 52 °F 64 °F (2010)
Min Temperature 41 °F 36 °F 24 °F (2000)
Degree Days  
Heating Degree Days 15    
Moisture  
Dew Point 33 °F    
Average Humidity 53    
Maximum Humidity 93    
Minimum Humidity 29    
Precipitation  
Precipitation 0.00 in - - ()
Sea Level Pressure  
Sea Level Pressure 30.31 in    
Wind  
Wind Speed 9 mph ()    
Max Wind Speed 22 mph    
Max Gust Speed 31 mph    
Visibility 19.0 miles    
Events      
Averages and records for this station are not official NWS values.
T = Trace of Precipitation, MM = Missing Value Source: Averaged Metar Reports

Daily Weather History Graph

Daily Weather History Graph

Search for Another Location

Airport or City:

Astronomy

Dec. 24, 2017 Rise Set
Actual Time 7:14 AM CET 4:18 PM CET
Civil Twilight 6:42 AM CET 4:50 PM CET
Nautical Twilight 6:07 AM CET 5:26 PM CET
Astronomical Twilight 5:32 AM CET 6:00 PM CET
Moon 11:00 AM CET (12/24) 10:12 PM CET (12/24)
Length of Visible Light 10h 07m
Length of Day
9h 03m
Waxing Crescent, 31% of the Moon is Illuminated
Dec 24
Waxing Crescent
Dec 26
First Quarter
Jan 2
Full
Jan 8
Last Quarter
Jan 17
New

Hourly Weather History & Observations

Time (CET) Temp. Windchill Dew Point Humidity Pressure Visibility Wind Dir Wind Speed Gust Speed Precip Events Conditions
12:00 AM 48.2 °F - 26.6 °F 43% 30.33 in - NNW 17.3 mph 31.1 mph N/A   Clear
12:30 AM 48.2 °F - 26.6 °F 43% 30.33 in - NNW 16.1 mph - N/A   Clear
1:00 AM 47 °F - 27 °F 32% 30.35 in 19 mi North 8.9 mph - -  
1:00 AM 48.2 °F - 26.6 °F 43% 30.33 in - Variable 9.2 mph 23.0 mph N/A   Clear
1:30 AM 48.2 °F - 26.6 °F 43% 30.33 in - North 21.9 mph - N/A   Clear
2:00 AM 48.2 °F - 26.6 °F 43% 30.33 in - North 18.4 mph - N/A   Clear
2:30 AM 48.2 °F - 26.6 °F 43% 30.30 in - NNE 17.3 mph - N/A   Clear
3:00 AM 48.2 °F - 26.6 °F 43% 30.30 in - North 17.3 mph - N/A   Clear
3:30 AM 48.2 °F - 26.6 °F 43% 30.30 in - North 13.8 mph - N/A   Clear
4:00 AM 49 °F - 26 °F 29% 30.32 in 19 mi North 15.7 mph - -  
4:00 AM 48.2 °F - 26.6 °F 43% 30.30 in - North 15.0 mph - N/A   Clear
4:30 AM 48.2 °F - 26.6 °F 43% 30.30 in - NNE 17.3 mph - N/A   Clear
5:00 AM 48.2 °F - 26.6 °F 43% 30.30 in - North 15.0 mph - N/A   Clear
5:30 AM 48.2 °F - 28.4 °F 46% 30.30 in - NNE 5.8 mph - N/A   Clear
6:00 AM 50.0 °F - 28.4 °F 43% 30.30 in - Variable 8.1 mph - N/A   Clear
6:30 AM 50.0 °F - 28.4 °F 43% 30.30 in - Variable 5.8 mph - N/A   Clear
7:00 AM 46 °F - 28 °F 38% 30.32 in 19 mi West 4.5 mph - -  
7:00 AM 42.8 °F 41.1 °F 28.4 °F 57% 30.30 in - WSW 3.5 mph - N/A   Clear
7:30 AM 48.2 °F - 28.4 °F 46% 30.30 in - North 3.5 mph - N/A   Clear
8:00 AM 50.0 °F - 28.4 °F 43% 30.30 in - Variable 4.6 mph - N/A   Clear
8:30 AM 51.8 °F - 28.4 °F 41% 30.30 in - NNE 16.1 mph - N/A   Clear
9:00 AM 53.6 °F - 30.2 °F 41% 30.30 in - NNE 10.4 mph - N/A   Clear
9:30 AM 55.4 °F - 32.0 °F 41% 30.30 in - ENE 9.2 mph - N/A   Clear
10:00 AM 57 °F - 33 °F 29% 30.32 in 19 mi South 4.5 mph - -  
10:00 AM 59.0 °F - 33.8 °F 39% 30.30 in - SE 2.3 mph - N/A   Clear
10:30 AM 57.2 °F - 33.8 °F 41% 30.30 in - West 6.9 mph - N/A   Clear
11:00 AM 55.4 °F - 35.6 °F 47% 30.33 in - WNW 6.9 mph - N/A   Clear
11:30 AM 57.2 °F - 35.6 °F 44% 30.30 in - West 4.6 mph - N/A   Clear
12:00 PM 57.2 °F - 39.2 °F 51% 30.30 in - West 9.2 mph - N/A   Clear
12:30 PM 57.2 °F - 37.4 °F 48% 30.30 in - West 5.8 mph - N/A   Clear
1:00 PM 57 °F - 38 °F 38% 30.30 in 19 mi West 6.7 mph - -   Clear
1:00 PM 55.4 °F - 37.4 °F 51% 30.30 in - West 6.9 mph - N/A   Clear
1:30 PM 55.4 °F - 35.6 °F 47% 30.27 in - West 8.1 mph - N/A   Clear
2:00 PM 57.2 °F - 35.6 °F 44% 30.27 in - West 5.8 mph - N/A   Clear
2:30 PM 55.4 °F - 37.4 °F 51% 30.30 in - WSW 5.8 mph - N/A   Clear
3:00 PM 55.4 °F - 39.2 °F 54% 30.27 in - WNW 5.8 mph - N/A   Clear
3:30 PM 55.4 °F - 37.4 °F 51% 30.27 in - WNW 6.9 mph - N/A   Clear
4:00 PM 54 °F - 38 °F 43% 30.30 in 19 mi West 4.5 mph - -   Clear
4:00 PM 53.6 °F - 37.4 °F 54% 30.30 in - WNW 3.5 mph - N/A   Clear
4:30 PM 51.8 °F - 39.2 °F 62% 30.30 in - Calm Calm - N/A   Clear
5:00 PM 46.4 °F - 37.4 °F 71% 30.30 in - Calm Calm - N/A   Clear
6:00 PM 44.6 °F 41.4 °F 35.6 °F 71% 30.30 in - East 5.8 mph - N/A   Clear
6:30 PM 44.6 °F 40.7 °F 37.4 °F 76% 30.30 in - ESE 6.9 mph - N/A   Clear
7:00 PM 44 °F - 38 °F 71% 30.34 in 19 mi ENE 2.2 mph - -  
7:00 PM 44.6 °F - 37.4 °F 76% 30.33 in - ENE 2.3 mph - N/A   Clear
7:30 PM 44.6 °F 42.2 °F 37.4 °F 76% 30.30 in - East 4.6 mph - N/A   Clear
8:00 PM 42.8 °F - 35.6 °F 76% 30.30 in - Variable 1.2 mph - N/A   Clear
8:30 PM 44.6 °F - 37.4 °F 76% 30.33 in - Variable 2.3 mph - N/A   Clear
9:00 PM 50.0 °F - 37.4 °F 62% 30.33 in - NNW 3.5 mph - N/A   Clear
9:30 PM 44.6 °F 43.1 °F 37.4 °F 76% 30.33 in - Variable 3.5 mph - N/A   Clear
10:00 PM 42 °F - 36 °F 74% 30.35 in 19 mi ENE 4.5 mph - -  
10:00 PM 41.0 °F 38.0 °F 37.4 °F 87% 30.33 in - ENE 4.6 mph - N/A   Clear
10:30 PM 46.4 °F 44.3 °F 35.6 °F 66% 30.33 in - East 4.6 mph - N/A   Clear
11:00 PM 44.6 °F 39.7 °F 39.2 °F 81% 30.33 in - ESE 9.2 mph - N/A   Clear
11:30 PM 42.8 °F 37.5 °F 41.0 °F 93% 30.33 in - East 9.2 mph - N/A   Clear